Time,TemperatureF,DewpointF,PressureIn,WindDirection,WindDirectionDegrees,WindSpeedMPH,WindSpeedGustMPH,Humidity,HourlyPrecipIn,Conditions,Clouds,dailyrainin,SoftwareType,DateUTC
2013-03-03 00:01:00,40.0,37.0,30.13,SSW,208,2.0,-999.0,89,-99.99,,,-99.99,,2013-03-03 08:01:00,
2013-03-03 00:11:00,40.0,37.0,30.13,SSW,208,2.0,-999.0,89,-99.99,,,-99.99,,2013-03-03 08:11:00,
2013-03-03 00:21:00,40.0,37.0,30.13,SSE,167,3.0,-999.0,89,-99.99,,,-99.99,,2013-03-03 08:21:00,
2013-03-03 00:31:00,40.0,37.0,30.13,SSE,167,2.0,-999.0,89,-99.99,,,-99.99,,2013-03-03 08:31:00,
2013-03-03 00:41:00,40.0,37.0,30.13,SSE,167,2.0,-999.0,89,-99.99,,,-99.99,,2013-03-03 08:41:00,
2013-03-03 00:53:00,40.0,37.0,30.14,SSE,167,1.0,-999.0,88,-99.99,,,-99.99,,2013-03-03 08:53:00,
2013-03-03 01:01:00,41.0,37.0,30.14,SW,227,5.0,-999.0,86,-99.99,,,-99.99,,2013-03-03 09:01:00,
2013-03-03 01:11:00,41.0,37.0,30.14,SW,227,5.0,-999.0,86,-99.99,,,-99.99,,2013-03-03 09:11:00,
2013-03-03 01:21:00,42.0,37.0,30.14,SW,215,3.0,-999.0,83,-99.99,,,-99.99,,2013-03-03 09:21:00,
2013-03-03 01:32:00,42.0,36.0,30.15,SW,220,7.0,-999.0,79,-99.99,,,-99.99,,2013-03-03 09:32:00,
2013-03-03 01:41:00,42.0,36.0,30.15,SW,220,7.0,-999.0,79,-99.99,,,-99.99,,2013-03-03 09:41:00,
2013-03-03 01:51:00,42.0,35.0,30.15,SW,217,6.0,-999.0,77,-99.99,,,-99.99,,2013-03-03 09:51:00,
2013-03-03 02:01:00,42.0,36.0,30.16,SW,230,4.0,-999.0,78,-99.99,,,-99.99,,2013-03-03 10:01:00,
2013-03-03 02:11:00,42.0,36.0,30.16,SW,230,4.0,-999.0,78,-99.99,,,-99.99,,2013-03-03 10:11:00,
2013-03-03 02:21:00,39.0,34.0,30.16,SW,215,2.0,-999.0,83,-99.99,,,-99.99,,2013-03-03 10:21:00,
2013-03-03 02:31:00,38.0,34.0,30.16,SW,215,1.0,-999.0,86,-99.99,,,-99.99,,2013-03-03 10:31:00,
2013-03-03 02:41:00,38.0,34.0,30.16,SW,215,1.0,-999.0,86,-99.99,,,-99.99,,2013-03-03 10:41:00,
2013-03-03 02:51:00,38.0,35.0,30.16,SSW,205,2.0,-999.0,88,-99.99,,,-99.99,,2013-03-03 10:51:00,
2013-03-03 03:01:00,38.0,35.0,30.16,SSW,205,1.0,-999.0,89,-99.99,,,-99.99,,2013-03-03 11:01:00,
2013-03-03 03:11:00,38.0,35.0,30.16,SSW,205,1.0,-999.0,89,-99.99,,,-99.99,,2013-03-03 11:11:00,
2013-03-03 03:21:00,38.0,35.0,30.17,SSW,205,1.0,-999.0,89,-99.99,,,-99.99,,2013-03-03 11:21:00,
2013-03-03 03:31:00,38.0,35.0,30.17,SSW,203,2.0,-999.0,90,-99.99,,,-99.99,,2013-03-03 11:31:00,
2013-03-03 03:41:00,38.0,35.0,30.17,SSW,203,2.0,-999.0,90,-99.99,,,-99.99,,2013-03-03 11:41:00,
2013-03-03 03:52:00,37.0,34.0,30.17,SSW,204,1.0,-999.0,90,-99.99,,,-99.99,,2013-03-03 11:52:00,
2013-03-03 04:01:00,38.0,36.0,30.17,SSW,204,0.0,-999.0,91,-99.99,,,-99.99,,2013-03-03 12:01:00,
2013-03-03 04:11:00,38.0,36.0,30.17,SSW,204,0.0,-999.0,91,-99.99,,,-99.99,,2013-03-03 12:11:00,
2013-03-03 04:21:00,39.0,36.0,30.17,SSW,203,1.0,-999.0,90,-99.99,,,-99.99,,2013-03-03 12:21:00,
2013-03-03 04:32:00,38.0,35.0,30.18,SSW,202,3.0,-999.0,89,-99.99,,,-99.99,,2013-03-03 12:32:00,
2013-03-03 04:42:00,38.0,35.0,30.18,SSW,202,3.0,-999.0,89,-99.99,,,-99.99,,2013-03-03 12:42:00,
2013-03-03 04:52:00,38.0,35.0,30.18,SSW,202,2.0,-999.0,90,-99.99,,,-99.99,,2013-03-03 12:52:00,
2013-03-03 05:01:00,39.0,36.0,30.17,SSW,202,2.0,-999.0,90,-99.99,,,-99.99,,2013-03-03 13:01:00,
2013-03-03 05:11:00,39.0,36.0,30.17,SSW,202,2.0,-999.0,90,-99.99,,,-99.99,,2013-03-03 13:11:00,
2013-03-03 05:21:00,38.0,35.0,30.18,SSW,201,2.0,-999.0,89,-99.99,,,-99.99,,2013-03-03 13:21:00,
2013-03-03 05:32:00,38.0,35.0,30.18,South,186,2.0,-999.0,90,-99.99,,,-99.99,,2013-03-03 13:32:00,
2013-03-03 05:41:00,38.0,35.0,30.18,South,186,2.0,-999.0,90,-99.99,,,-99.99,,2013-03-03 13:41:00,
2013-03-03 05:51:00,38.0,35.0,30.19,South,185,2.0,-999.0,90,-99.99,,,-99.99,,2013-03-03 13:51:00,
2013-03-03 06:01:00,38.0,35.0,30.19,South,185,1.0,-999.0,90,-99.99,,,-99.99,,2013-03-03 14:01:00,
2013-03-03 06:11:00,38.0,35.0,30.19,South,185,1.0,-999.0,90,-99.99,,,-99.99,,2013-03-03 14:11:00,
2013-03-03 06:21:00,40.0,37.0,30.19,South,184,3.0,-999.0,89,-99.99,,,-99.99,,2013-03-03 14:21:00,
2013-03-03 06:31:00,41.0,37.0,30.19,South,183,4.0,-999.0,86,-99.99,,,-99.99,,2013-03-03 14:31:00,
2013-03-03 06:42:00,41.0,37.0,30.19,South,183,4.0,-999.0,86,-99.99,,,-99.99,,2013-03-03 14:42:00,
2013-03-03 06:52:00,41.0,37.0,30.19,South,187,4.0,-999.0,84,-99.99,,,-99.99,,2013-03-03 14:52:00,
2013-03-03 07:01:00,40.0,36.0,30.19,South,187,2.0,-999.0,84,-99.99,,,-99.99,,2013-03-03 15:01:00,
2013-03-03 07:11:00,40.0,36.0,30.19,South,187,2.0,-999.0,84,-99.99,,,-99.99,,2013-03-03 15:11:00,
2013-03-03 07:22:00,41.0,36.0,30.20,SW,218,6.0,-999.0,83,-99.99,,,-99.99,,2013-03-03 15:22:00,
2013-03-03 07:32:00,41.0,36.0,30.20,SW,216,7.0,-999.0,81,-99.99,,,-99.99,,2013-03-03 15:32:00,
2013-03-03 07:42:00,41.0,36.0,30.20,SW,216,7.0,-999.0,81,-99.99,,,-99.99,,2013-03-03 15:42:00,
2013-03-03 07:51:00,41.0,35.0,30.20,SW,217,9.0,-999.0,80,-99.99,,,-99.99,,2013-03-03 15:51:00,
2013-03-03 08:01:00,41.0,35.0,30.20,SSW,192,5.0,-999.0,79,-99.99,,,-99.99,,2013-03-03 16:01:00,
2013-03-03 08:11:00,41.0,35.0,30.20,SSW,192,5.0,-999.0,79,-99.99,,,-99.99,,2013-03-03 16:11:00,
2013-03-03 08:21:00,41.0,35.0,30.21,South,187,5.0,-999.0,79,-99.99,,,-99.99,,2013-03-03 16:21:00,
2013-03-03 08:31:00,42.0,36.0,30.21,SSW,208,4.0,-999.0,78,-99.99,,,-99.99,,2013-03-03 16:31:00,
2013-03-03 08:41:00,42.0,36.0,30.21,SSW,208,4.0,-999.0,78,-99.99,,,-99.99,,2013-03-03 16:41:00,
2013-03-03 08:51:00,42.0,35.0,30.21,SSW,209,5.0,-999.0,76,-99.99,,,-99.99,,2013-03-03 16:51:00,
2013-03-03 09:01:00,42.0,36.0,30.21,SSW,195,5.0,-999.0,79,-99.99,,,-99.99,,2013-03-03 17:01:00,
2013-03-03 09:11:00,42.0,36.0,30.21,SW,223,4.0,-999.0,78,-99.99,,,-99.99,,2013-03-03 17:11:00,
2013-03-03 09:22:00,42.0,36.0,30.21,SW,223,4.0,-999.0,78,-99.99,,,-99.99,,2013-03-03 17:22:00,
2013-03-03 09:32:00,42.0,35.0,30.22,West,260,5.0,-999.0,75,-99.99,,,-99.99,,2013-03-03 17:32:00,
2013-03-03 09:41:00,42.0,35.0,30.22,West,260,5.0,-999.0,75,-99.99,,,-99.99,,2013-03-03 17:41:00,
2013-03-03 09:52:00,42.0,34.0,30.22,SSW,213,5.0,-999.0,74,-99.99,,,-99.99,,2013-03-03 17:52:00,
2013-03-03 10:01:00,42.0,35.0,30.22,WNW,294,6.0,-999.0,77,-99.99,,,-99.99,,2013-03-03 18:01:00,
2013-03-03 10:11:00,42.0,35.0,30.22,WNW,294,6.0,-999.0,77,-99.99,,,-99.99,,2013-03-03 18:11:00,
2013-03-03 10:21:00,42.0,35.0,30.22,West,268,8.0,-999.0,77,-99.99,,,-99.99,,2013-03-03 18:21:00,
2013-03-03 10:31:00,42.0,35.0,30.22,West,269,9.0,-999.0,77,-99.99,,,-99.99,,2013-03-03 18:31:00,
2013-03-03 10:41:00,42.0,35.0,30.22,West,269,9.0,-999.0,77,-99.99,,,-99.99,,2013-03-03 18:41:00,
2013-03-03 10:52:00,42.0,35.0,30.22,WNW,298,9.0,-999.0,77,-99.99,,,-99.99,,2013-03-03 18:52:00,
2013-03-03 11:01:00,42.0,36.0,30.22,West,277,7.0,-999.0,79,-99.99,,,-99.99,,2013-03-03 19:01:00,
2013-03-03 11:11:00,42.0,36.0,30.22,West,277,7.0,-999.0,79,-99.99,,,-99.99,,2013-03-03 19:11:00,
2013-03-03 11:21:00,42.0,36.0,30.22,WNW,288,6.0,-999.0,78,-99.99,,,-99.99,,2013-03-03 19:21:00,
2013-03-03 11:31:00,42.0,36.0,30.22,WSW,256,8.0,-999.0,79,-99.99,,,-99.99,,2013-03-03 19:31:00,
2013-03-03 11:42:00,42.0,36.0,30.22,WSW,256,8.0,-999.0,79,-99.99,,,-99.99,,2013-03-03 19:42:00,
2013-03-03 11:51:00,43.0,38.0,30.22,WNW,296,8.0,-999.0,81,-99.99,,,-99.99,,2013-03-03 19:51:00,
2013-03-03 12:01:00,43.0,38.0,30.23,West,271,9.0,-999.0,81,-99.99,,,-99.99,,2013-03-03 20:01:00,
2013-03-03 12:11:00,43.0,38.0,30.23,West,271,9.0,-999.0,81,-99.99,,,-99.99,,2013-03-03 20:11:00,
2013-03-03 12:21:00,43.0,37.0,30.23,West,268,12.0,-999.0,78,-99.99,,,-99.99,,2013-03-03 20:21:00,
2013-03-03 12:32:00,43.0,37.0,30.23,West,269,9.0,-999.0,78,-99.99,,,-99.99,,2013-03-03 20:32:00,
2013-03-03 12:42:00,43.0,37.0,30.23,West,269,9.0,-999.0,78,-99.99,,,-99.99,,2013-03-03 20:42:00,
2013-03-03 12:52:00,43.0,36.0,30.23,WSW,257,10.0,-999.0,76,-99.99,,,-99.99,,2013-03-03 20:52:00,
2013-03-03 13:01:00,43.0,37.0,30.24,NW,318,8.0,-999.0,78,-99.99,,,-99.99,,2013-03-03 21:01:00,
2013-03-03 13:11:00,43.0,37.0,30.24,NW,318,8.0,-999.0,78,-99.99,,,-99.99,,2013-03-03 21:11:00,
2013-03-03 13:21:00,43.0,37.0,30.24,WNW,298,8.0,-999.0,79,-99.99,,,-99.99,,2013-03-03 21:21:00,
2013-03-03 13:31:00,44.0,38.0,30.24,NW,307,7.0,-999.0,78,-99.99,,,-99.99,,2013-03-03 21:31:00,
2013-03-03 13:41:00,44.0,38.0,30.24,NW,307,7.0,-999.0,78,-99.99,,,-99.99,,2013-03-03 21:41:00,
2013-03-03 13:52:00,44.0,37.0,30.24,WNW,298,6.0,-999.0,76,-99.99,,,-99.99,,2013-03-03 21:52:00,
2013-03-03 14:01:00,44.0,37.0,30.24,WNW,301,5.0,-999.0,75,-99.99,,,-99.99,,2013-03-03 22:01:00,
2013-03-03 14:11:00,44.0,37.0,30.24,WNW,301,5.0,-999.0,75,-99.99,,,-99.99,,2013-03-03 22:11:00,
2013-03-03 14:21:00,44.0,37.0,30.23,WNW,286,6.0,-999.0,76,-99.99,,,-99.99,,2013-03-03 22:21:00,
2013-03-03 14:31:00,44.0,37.0,30.23,West,269,6.0,-999.0,75,-99.99,,,-99.99,,2013-03-03 22:31:00,
2013-03-03 14:41:00,44.0,37.0,30.23,West,269,6.0,-999.0,75,-99.99,,,-99.99,,2013-03-03 22:41:00,
2013-03-03 14:52:00,44.0,37.0,30.24,West,264,6.0,-999.0,75,-99.99,,,-99.99,,2013-03-03 22:52:00,
2013-03-03 15:01:00,44.0,37.0,30.24,WNW,291,5.0,-999.0,76,-99.99,,,-99.99,,2013-03-03 23:01:00,
2013-03-03 15:11:00,44.0,37.0,30.24,WNW,291,5.0,-999.0,76,-99.99,,,-99.99,,2013-03-03 23:11:00,
2013-03-03 15:21:00,44.0,37.0,30.24,West,263,6.0,-999.0,75,-99.99,,,-99.99,,2013-03-03 23:21:00,
2013-03-03 15:31:00,45.0,38.0,30.23,West,264,5.0,-999.0,75,-99.99,,,-99.99,,2013-03-03 23:31:00,
2013-03-03 15:41:00,45.0,38.0,30.23,West,264,5.0,-999.0,75,-99.99,,,-99.99,,2013-03-03 23:41:00,
2013-03-03 15:52:00,46.0,39.0,30.23,West,259,2.0,-999.0,75,-99.99,,,-99.99,,2013-03-03 23:52:00,
2013-03-03 16:01:00,46.0,38.0,30.24,SW,218,4.0,-999.0,73,-99.99,,,-99.99,,2013-03-04 00:01:00,
2013-03-03 16:11:00,46.0,38.0,30.24,SW,218,4.0,-999.0,73,-99.99,,,-99.99,,2013-03-04 00:11:00,
2013-03-03 16:21:00,45.0,37.0,30.24,SW,218,5.0,-999.0,74,-99.99,,,-99.99,,2013-03-04 00:21:00,
2013-03-03 16:32:00,46.0,38.0,30.24,SW,217,3.0,-999.0,74,-99.99,,,-99.99,,2013-03-04 00:32:00,
2013-03-03 16:41:00,46.0,38.0,30.24,SW,217,3.0,-999.0,74,-99.99,,,-99.99,,2013-03-04 00:41:00,
2013-03-03 16:52:00,46.0,38.0,30.24,SW,217,2.0,-999.0,74,-99.99,,,-99.99,,2013-03-04 00:52:00,
2013-03-03 17:01:00,45.0,37.0,30.24,SW,217,4.0,-999.0,74,-99.99,,,-99.99,,2013-03-04 01:01:00,
2013-03-03 17:11:00,45.0,37.0,30.24,SW,217,4.0,-999.0,74,-99.99,,,-99.99,,2013-03-04 01:11:00,
2013-03-03 17:21:00,45.0,38.0,30.24,SW,218,3.0,-999.0,75,-99.99,,,-99.99,,2013-03-04 01:21:00,
2013-03-03 17:31:00,45.0,38.0,30.24,SW,218,4.0,-999.0,76,-99.99,,,-99.99,,2013-03-04 01:31:00,
2013-03-03 17:42:00,45.0,38.0,30.24,SW,218,4.0,-999.0,76,-99.99,,,-99.99,,2013-03-04 01:42:00,
2013-03-03 17:52:00,44.0,37.0,30.24,SW,217,5.0,-999.0,77,-99.99,,,-99.99,,2013-03-04 01:52:00,
2013-03-03 18:01:00,44.0,38.0,30.24,SW,217,2.0,-999.0,78,-99.99,,,-99.99,,2013-03-04 02:01:00,
2013-03-03 18:11:00,44.0,38.0,30.24,SW,217,2.0,-999.0,78,-99.99,,,-99.99,,2013-03-04 02:11:00,
2013-03-03 18:22:00,43.0,37.0,30.24,SW,217,0.0,-999.0,79,-99.99,,,-99.99,,2013-03-04 02:22:00,
2013-03-03 18:31:00,42.0,37.0,30.24,SW,217,0.0,-999.0,81,-99.99,,,-99.99,,2013-03-04 02:31:00,
2013-03-03 18:41:00,42.0,37.0,30.24,SW,217,0.0,-999.0,81,-99.99,,,-99.99,,2013-03-04 02:41:00,
2013-03-03 18:52:00,42.0,37.0,30.25,SW,217,1.0,-999.0,83,-99.99,,,-99.99,,2013-03-04 02:52:00,
2013-03-03 19:01:00,41.0,37.0,30.25,SW,217,0.0,-999.0,84,-99.99,,,-99.99,,2013-03-04 03:01:00,
2013-03-03 19:11:00,41.0,37.0,30.25,SW,217,0.0,-999.0,84,-99.99,,,-99.99,,2013-03-04 03:11:00,
2013-03-03 19:21:00,40.0,36.0,30.26,SSW,211,2.0,-999.0,84,-99.99,,,-99.99,,2013-03-04 03:21:00,
2013-03-03 19:31:00,39.0,35.0,30.26,South,191,3.0,-999.0,84,-99.99,,,-99.99,,2013-03-04 03:31:00,
2013-03-03 19:41:00,39.0,35.0,30.26,South,191,3.0,-999.0,84,-99.99,,,-99.99,,2013-03-04 03:41:00,
2013-03-03 19:52:00,39.0,35.0,30.26,South,191,3.0,-999.0,84,-99.99,,,-99.99,,2013-03-04 03:52:00,
2013-03-03 20:01:00,38.0,34.0,30.26,SSE,159,1.0,-999.0,84,-99.99,,,-99.99,,2013-03-04 04:01:00,
2013-03-03 20:11:00,38.0,34.0,30.26,SSE,159,1.0,-999.0,84,-99.99,,,-99.99,,2013-03-04 04:11:00,
2013-03-03 20:22:00,38.0,34.0,30.26,SE,126,2.0,-999.0,85,-99.99,,,-99.99,,2013-03-04 04:22:00,
2013-03-03 20:31:00,38.0,34.0,30.26,SE,124,1.0,-999.0,86,-99.99,,,-99.99,,2013-03-04 04:31:00,
2013-03-03 20:41:00,38.0,34.0,30.26,SE,124,1.0,-999.0,86,-99.99,,,-99.99,,2013-03-04 04:41:00,
2013-03-03 20:52:00,38.0,34.0,30.26,ESE,115,3.0,-999.0,86,-99.99,,,-99.99,,2013-03-04 04:52:00,
2013-03-03 21:01:00,38.0,34.0,30.26,ESE,119,2.0,-999.0,86,-99.99,,,-99.99,,2013-03-04 05:01:00,
2013-03-03 21:11:00,38.0,34.0,30.26,ESE,119,2.0,-999.0,86,-99.99,,,-99.99,,2013-03-04 05:11:00,
2013-03-03 21:22:00,37.0,33.0,30.26,ESE,121,2.0,-999.0,86,-99.99,,,-99.99,,2013-03-04 05:22:00,
2013-03-03 21:31:00,37.0,33.0,30.27,ESE,122,2.0,-999.0,86,-99.99,,,-99.99,,2013-03-04 05:31:00,
2013-03-03 21:42:00,37.0,33.0,30.27,ESE,122,2.0,-999.0,86,-99.99,,,-99.99,,2013-03-04 05:42:00,
2013-03-03 21:52:00,37.0,33.0,30.27,ESE,122,2.0,-999.0,86,-99.99,,,-99.99,,2013-03-04 05:52:00,
2013-03-03 22:01:00,37.0,33.0,30.27,ESE,122,2.0,-999.0,86,-99.99,,,-99.99,,2013-03-04 06:01:00,
2013-03-03 22:11:00,37.0,33.0,30.27,ESE,122,2.0,-999.0,86,-99.99,,,-99.99,,2013-03-04 06:11:00,
2013-03-03 22:21:00,37.0,33.0,30.27,SE,128,2.0,-999.0,86,-99.99,,,-99.99,,2013-03-04 06:21:00,
2013-03-03 22:31:00,36.0,33.0,30.27,SE,129,1.0,-999.0,87,-99.99,,,-99.99,,2013-03-04 06:31:00,
2013-03-03 22:42:00,36.0,33.0,30.27,SE,129,1.0,-999.0,87,-99.99,,,-99.99,,2013-03-04 06:42:00,
2013-03-03 22:52:00,36.0,33.0,30.27,SE,131,2.0,-999.0,88,-99.99,,,-99.99,,2013-03-04 06:52:00,
2013-03-03 23:01:00,36.0,33.0,30.28,SE,130,1.0,-999.0,88,-99.99,,,-99.99,,2013-03-04 07:01:00,
2013-03-03 23:11:00,36.0,33.0,30.28,SE,130,1.0,-999.0,88,-99.99,,,-99.99,,2013-03-04 07:11:00,
2013-03-03 23:21:00,36.0,33.0,30.27,SE,131,1.0,-999.0,88,-99.99,,,-99.99,,2013-03-04 07:21:00,
2013-03-03 23:31:00,36.0,33.0,30.27,SE,130,1.0,-999.0,88,-99.99,,,-99.99,,2013-03-04 07:31:00,
2013-03-03 23:41:00,36.0,33.0,30.27,SE,130,1.0,-999.0,88,-99.99,,,-99.99,,2013-03-04 07:41:00,
2013-03-03 23:52:00,35.0,32.0,30.28,SE,131,0.0,-999.0,88,-99.99,,,-99.99,,2013-03-04 07:52:00,